Pampa, TX

12:48 PM CST on December 08, 2016 (GMT -0600)
Perry Lefors

Weather History for KPPA - August, 2013

Change the Weather History Date:

Friday, August 23, 2013

  Actual Average Record
Temperature  
Mean Temperature 78 °F -  
Max Temperature 93 °F 89 °F 100 °F (2011)
Min Temperature 64 °F 64 °F 51 °F (1966)
Cooling Degree Days 13    
Growing Degree Days 28 (Base 50)    
Moisture  
Dew Point 54 °F    
Average Humidity 44    
Maximum Humidity 65    
Minimum Humidity 23    
Precipitation  
Precipitation 0.00 in - - ()
Sea Level Pressure  
Sea Level Pressure 30.09 in    
Wind  
Wind Speed 8 mph (SSW)    
Max Wind Speed 16 mph    
Max Gust Speed 23 mph    
Visibility 10 miles    
Events      
Averages and records for this station are not official NWS values.
T = Trace of Precipitation, MM = Missing Value Source: NWS Daily Summary

Daily Weather History Graph

Daily Weather History Graph

Search for Another Location

Airport or City:

Trip Planner

Search our weather history database for the weather conditions in past years. The results will help you decide how hot, cold, wet, or windy it might be!

Date:

Astronomy

Aug. 23, 2013 Rise Set
Actual Time 7:09 AM CDT 8:22 PM CDT
Civil Twilight 6:42 AM CDT 8:49 PM CDT
Nautical Twilight 6:11 AM CDT 9:20 PM CDT
Astronomical Twilight 5:38 AM CDT 9:53 PM CDT
Moon 9:52 PM CDT (8/23) 9:58 AM CDT (8/23)
Length of Visible Light 14h 06m
Length of Day
13h 13m
Waning Gibbous, 91% of the Moon is Illuminated
Aug 23
Waning Gibbous
Aug 28
Last Quarter
Sep 5
New
Sep 12
First Quarter
Sep 19
Full

Hourly Weather History & Observations

Time (CDT) Temp. Heat Index Dew Point Humidity Pressure Visibility Wind Dir Wind Speed Gust Speed Precip Events Conditions
12:15 AM 68.4 °F - 52.7 °F 57% 30.11 in 10.0 mi SSE 5.8 mph - N/A   Clear
12:35 AM 67.5 °F - 52.0 °F 58% 30.11 in 10.0 mi South 6.9 mph - N/A   Clear
12:55 AM 66.6 °F - 52.2 °F 60% 30.11 in 10.0 mi South 8.1 mph - N/A   Clear
1:15 AM 66.6 °F - 51.4 °F 58% 30.11 in 10.0 mi South 8.1 mph - N/A   Clear
1:35 AM 65.5 °F - 51.3 °F 60% 30.11 in 10.0 mi South 6.9 mph - N/A   Clear
1:55 AM 64.2 °F - 51.1 °F 62% 30.12 in 10.0 mi South 9.2 mph - N/A   Clear
2:15 AM 65.1 °F - 50.5 °F 59% 30.11 in 10.0 mi SSW 9.2 mph - N/A   Clear
2:35 AM 65.8 °F - 50.4 °F 57% 30.11 in 10.0 mi South 9.2 mph - N/A   Clear
2:55 AM 65.3 °F - 50.0 °F 58% 30.11 in 10.0 mi SSW 9.2 mph - N/A   Clear
3:15 AM 64.9 °F - 51.1 °F 61% 30.10 in 10.0 mi South 8.1 mph - N/A   Clear
3:35 AM 66.4 °F - 51.1 °F 58% 30.11 in 10.0 mi SSW 10.4 mph - N/A   Clear
3:55 AM 66.7 °F - 51.8 °F 59% 30.10 in 10.0 mi South 9.2 mph - N/A   Clear
4:15 AM 66.4 °F - 52.2 °F 60% 30.10 in 10.0 mi SSW 9.2 mph - N/A   Clear
4:35 AM 67.3 °F - 52.7 °F 59% 30.10 in 10.0 mi SSW 9.2 mph - N/A   Clear
4:55 AM 65.7 °F - 53.1 °F 64% 30.10 in 10.0 mi SSW 8.1 mph - N/A   Clear
5:15 AM 67.3 °F - 53.6 °F 61% 30.10 in 10.0 mi SSW 8.1 mph - N/A   Clear
5:35 AM 70.3 °F - 54.0 °F 56% 30.09 in 10.0 mi SW 10.4 mph - N/A   Clear
5:55 AM 70.7 °F - 54.5 °F 56% 30.09 in 10.0 mi SW 10.4 mph - N/A   Clear
6:15 AM 70.7 °F - 54.9 °F 57% 30.10 in 10.0 mi SW 10.4 mph - N/A   Clear
6:35 AM 70.7 °F - 55.4 °F 58% 30.10 in 10.0 mi SW 10.4 mph - N/A   Clear
6:55 AM 70.0 °F - 55.6 °F 60% 30.10 in 10.0 mi SW 9.2 mph - N/A   Clear
7:15 AM 68.4 °F - 55.4 °F 63% 30.11 in 10.0 mi WSW 5.8 mph - N/A   Clear
7:35 AM 68.7 °F - 56.1 °F 64% 30.11 in 10.0 mi SW 6.9 mph - N/A   Clear
7:55 AM 68.9 °F - 56.7 °F 65% 30.12 in 10.0 mi SW 4.6 mph - N/A   Clear
8:15 AM 72.0 °F - 57.2 °F 60% 30.12 in 10.0 mi SW 8.1 mph - N/A   Clear
8:35 AM 73.6 °F - 57.6 °F 57% 30.12 in 10.0 mi SSW 6.9 mph - N/A   Clear
8:55 AM 75.4 °F - 58.3 °F 55% 30.13 in 10.0 mi SSW 6.9 mph - N/A   Clear
9:15 AM 77.0 °F - 58.6 °F 53% 30.13 in 10.0 mi WSW 8.1 mph - N/A   Clear
9:35 AM 78.4 °F - 58.6 °F 50% 30.13 in 10.0 mi WSW 6.9 mph - N/A   Clear
9:55 AM 80.6 °F 80.9 °F 58.1 °F 46% 30.13 in 10.0 mi WSW 5.8 mph - N/A   Clear
10:15 AM 82.2 °F 82.0 °F 57.4 °F 43% 30.14 in 10.0 mi West 8.1 mph - N/A   Clear
10:35 AM 84.2 °F 83.2 °F 56.3 °F 38% 30.14 in 10.0 mi WSW 6.9 mph - N/A   Clear
10:55 AM 85.5 °F 84.1 °F 55.6 °F 36% 30.14 in 10.0 mi West 9.2 mph - N/A   Clear
11:15 AM 86.0 °F 84.3 °F 54.9 °F 34% 30.14 in 10.0 mi SW 8.1 mph - N/A   Clear
11:35 AM 86.9 °F 85.1 °F 54.9 °F 33% 30.14 in 10.0 mi SW 6.9 mph - N/A   Clear
11:55 AM 88.0 °F 86.1 °F 54.7 °F 32% 30.14 in 10.0 mi WSW 10.4 mph - N/A   Clear
12:15 PM 88.2 °F 86.3 °F 55.0 °F 32% 30.14 in 10.0 mi WSW 4.6 mph - N/A   Clear
12:35 PM 86.5 °F 84.7 °F 54.0 °F 33% 30.14 in 10.0 mi SW 6.9 mph - N/A   Scattered Clouds
12:55 PM 87.4 °F 85.5 °F 54.5 °F 32% 30.13 in 10.0 mi South 10.4 mph - N/A   Overcast
1:15 PM 89.8 °F 87.5 °F 53.8 °F 29% 30.12 in 10.0 mi SSW 8.1 mph 17.3 mph N/A   Scattered Clouds
1:35 PM 88.5 °F 86.5 °F 54.0 °F 31% 30.12 in 10.0 mi SSW 8.1 mph 18.4 mph N/A   Clear
1:55 PM 91.0 °F 88.5 °F 53.1 °F 27% 30.11 in 10.0 mi SSW 12.7 mph 17.3 mph N/A   Clear
2:15 PM 90.7 °F 88.3 °F 53.8 °F 28% 30.10 in 10.0 mi SSW 12.7 mph - N/A   Scattered Clouds
2:35 PM 90.0 °F - 52.0 °F 27% 30.10 in 10.0 mi South 4.6 mph - N/A   Scattered Clouds
2:55 PM 90.5 °F - 51.3 °F 26% 30.09 in 10.0 mi South 11.5 mph - N/A   Scattered Clouds
3:15 PM 92.1 °F - 49.8 °F 23% 30.09 in 10.0 mi South 9.2 mph 23.0 mph N/A   Scattered Clouds
3:35 PM 90.0 °F - 50.5 °F 26% 30.08 in 10.0 mi South 11.5 mph - N/A   Scattered Clouds
3:55 PM 90.0 °F - 50.9 °F 26% 30.07 in 10.0 mi SSW 13.8 mph 19.6 mph N/A   Scattered Clouds
4:15 PM 92.1 °F - 50.0 °F 24% 30.06 in 10.0 mi SSW 10.4 mph - N/A   Scattered Clouds
4:35 PM 92.3 °F - 48.9 °F 23% 30.06 in 10.0 mi SSW 9.2 mph - N/A   Clear
4:55 PM 92.1 °F - 50.2 °F 24% 30.05 in 10.0 mi SSE 10.4 mph - N/A   Clear
5:15 PM 91.6 °F - 50.2 °F 24% 30.04 in 10.0 mi South 11.5 mph 17.3 mph N/A   Clear
5:35 PM 91.6 °F - 49.8 °F 24% 30.04 in 10.0 mi South 13.8 mph 17.3 mph N/A   Clear
5:55 PM 91.4 °F - 49.8 °F 24% 30.04 in 10.0 mi South 8.1 mph - N/A   Clear
6:15 PM 90.9 °F - 50.4 °F 25% 30.03 in 10.0 mi South 6.9 mph 10.4 mph N/A   Clear
6:35 PM 90.1 °F - 50.7 °F 26% 30.03 in 10.0 mi South 6.9 mph - N/A   Clear
6:55 PM 88.9 °F - 52.2 °F 28% 30.03 in 10.0 mi South 11.5 mph - N/A   Scattered Clouds
7:15 PM 88.0 °F - 52.9 °F 30% 30.03 in 10.0 mi SSE 11.5 mph - N/A   Clear
7:35 PM 86.2 °F 84.2 °F 53.1 °F 32% 30.03 in 10.0 mi SE 12.7 mph 19.6 mph N/A   Clear
7:55 PM 85.1 °F 83.3 °F 53.2 °F 33% 30.04 in 10.0 mi SE 16.1 mph 19.6 mph N/A   Clear
8:15 PM 83.3 °F 82.1 °F 53.6 °F 36% 30.05 in 10.0 mi SE 11.5 mph - N/A   Clear
8:35 PM 82.4 °F 81.4 °F 54.0 °F 37% 30.05 in 10.0 mi SE 10.4 mph - N/A   Clear
8:55 PM 81.0 °F 80.6 °F 54.5 °F 40% 30.06 in 10.0 mi SE 9.2 mph - N/A   Clear
9:15 PM 79.9 °F - 54.9 °F 42% 30.07 in 10.0 mi SE 8.1 mph - N/A   Clear
9:35 PM 78.3 °F - 55.4 °F 45% 30.08 in 10.0 mi SSE 8.1 mph - N/A   Clear
9:55 PM 77.9 °F - 56.3 °F 47% 30.08 in 10.0 mi SSE 8.1 mph - N/A   Clear
10:15 PM 75.6 °F - 56.8 °F 52% 30.09 in 10.0 mi South 8.1 mph - N/A   Clear
10:35 PM 74.5 °F - 57.2 °F 55% 30.09 in 10.0 mi SSE 6.9 mph - N/A   Clear
10:55 PM 73.4 °F - 57.2 °F 57% 30.10 in 10.0 mi South 6.9 mph - N/A   Clear
11:15 PM 74.7 °F - 57.2 °F 54% 30.09 in 10.0 mi South 8.1 mph - N/A   Clear
11:35 PM 76.1 °F - 56.3 °F 50% 30.09 in 10.0 mi SSE 8.1 mph - N/A   Clear
11:55 PM 75.6 °F - 56.5 °F 51% 30.09 in 10.0 mi South 8.1 mph - N/A   Clear